Location: Austin
(30.3000°N, 97.7500°W)
Time: 00:58:29
(UTC-06:00)

Cosmos 1025 Rocket - Pass Details

Date: 04 November 2025
Orbit: 588 x 609 km, 82.5° (Epoch: 15 November)

Event Time Altitude Azimuth Distance (km) Brightness Sun altitude
Rises 19:04:34 0° 349° (N) 2,864 6.5 -18.4°
Reaches altitude 10° 19:06:49 10° 346° (NNW) 1,954 5.7 -18.9°
Maximum altitude 19:11:04 60° 267° (W) 691 3.5 -19.8°
Drops below altitude 10° 19:15:16 10° 187° (S) 1,930 5.7 -20.7°
Sets 19:17:29 0° 183° (S) 2,825 6.6 -21.2°
